User: anonymous   Login
Location: ?????
(33.6267°N, 35.4675°E)
Time: 19:30:33
(UTC+00:00)
Language:

Cosmos 2278 - Orbit

View from above orbital plane
View from above orbital plane
View from above satellite
View from above satellite

Ground track
Ground track

The orbit data is extracted from the following two-line orbital elements,

1 23087U 94023A   20023.49825528 -.00000092 +00000-0 -23587-4 0  9990
2 23087 071.0542 172.7254 0010019 217.9982 142.0434 14.13805734328566
Epoch (UTC): 23 January 2020 11:57:29
Eccentricity: 0.0010019
inclination: 71.0542°
perigee height: 839 km
apogee height: 853 km
right ascension of ascending node: 172.7254°
argument of perigee: 217.9982°
revolutions per day: 14.13805734
mean anomaly at epoch: 142.0434°
orbit number at epoch: 32856

The dashed part of the orbit path shows where the satellite is in the earth's shadow,  

DLR